CZ-6A DEB, 61304

Orbit data source: Space-Track

CZ-6A DEB, 61304 is space debris in LEO originally from a launch on Tue, 06 Aug 2024 UTC launched from the Taiyaun Space Center, China (TSC). Debris objects in space refer to the collection of defunct objects orbiting the Earth. Examples of debris include non-operational satellites, rocket bodies, and fragments generated from explosions, collisions, or faulty payload assembly.

Loading next visibility...
Identifier
61304, 2024-140TR
Orbit
LEO
Country
Flag of CNCN / PRC
Related business
Manufacturer
SAST
Mission
Spacecraft
Bus & Motor
Unknown
Mass
Unknown
Launch date (UTC)
2024-08-06 (1 year ago)
Launch vehicle
Unknown
Launch site
Taiyaun Space Center, China (TSC)
Object type
Payload
Rocket body
Debris
Shape & HBR
Unknown shape, 0.1 m
Radar Cross Section
Small (<0.1 m²)

Expand to show TLE details & history
Last TLE update: 17 hours ago

TLE from 17 hours ago
0 CZ-6A DEB
1 61304U 24140TR  25351.38522331  .00001621  00000-0  39582-3 0  9998
2 61304  89.2069 305.0361 0078485 145.7465 214.8841 14.50318266 68954
Epoch: 2025-12-17T09:14Z
TLE epoch observation values (Epoch: 2025-12-17T09:14:43.293Z)
Latitude
-0.00003°
Longitude
80.09987°
Altitude
773.588 km
Speed
7.443 km/s
True Right ascension
20h 20m 08s
True Declination
0° 00' 00"
Sunlit
Object was in daylight at epoch
Visualization orbit readout
Latitude
Unknown
Longitude
Unknown
Altitude
Unknown
Speed
Unknown
Apparent Right ascension
Unknown
Apparent Declination
Unknown
Sunlit
N/A
Visualization observer readout
Local Sidereal Time
01:28:44
Azimuth
Unknown
Elevation
Unknown
Doppler factor
Unknown
Orbital elements
Apogee altitude
777.237 km
Perigee altitude
665.794 km
Semi-major axis
7,099.653 km
Eccentricity
0.00785
Inclination
89.2069°
RAAN
305.0361°
Arg. of periapsis
145.7465°
True anomaly
214.37385°
Mean anomaly
214.8841°
Eccentric anomaly
214.62856°
Mean motion
3.62817 °/min
Orbital period
99.22 mins
BSTAR
0.00039582
Loading maneuver chart data...
Computing Atmospheric mass density...
Loading historical data...
Loading historical data...
Loading historical data...
Loading historical data...
Loading historical data...
Loading historical data...
Loading historical data...

Documentation

Showing up to 5 results
|